Weather History for Eagle River, WI

Change the Weather History Date:

Tuesday, January 10, 2012

  Actual Average Record
Temperature  
Mean Temperature 28 °F -  
Max Temperature 42 °F 24 °F 42 °F (2012)
Min Temperature 14 °F 2 °F -16 °F (2009)
Degree Days  
Heating Degree Days 37    
Moisture  
Dew Point 24 °F    
Average Humidity 86    
Maximum Humidity 100    
Minimum Humidity 57    
Precipitation  
Precipitation 0.00 in - - ()
Sea Level Pressure  
Sea Level Pressure 29.80 in    
Wind  
Wind Speed 2 mph (SW)    
Max Wind Speed 14 mph    
Max Gust Speed 22 mph    
Visibility 9 miles    
Events      
Averages and records for this station are not official NWS values.
T = Trace of Precipitation, MM = Missing Value Source: NWS Daily Summary

Daily Weather History Graph

Daily Weather History Graph

Search for Another Location

Airport:

Trip Planner

Search our weather history database for the weather conditions in past years. The results will help you decide how hot, cold, wet, or windy it might be!

Date:

Astronomy

Jan. 10, 2012 Rise Set
Actual Time 7:37 AM CST 4:31 PM CST
Civil Twilight 7:03 AM CST 5:05 PM CST
Nautical Twilight 6:26 AM CST 5:43 PM CST
Astronomical Twilight 5:50 AM CST 6:19 PM CST
Moon 6:31 PM CST (1/10) 8:09 AM CST (1/10)
Length of Visible Light 10h 02m
Length of Day
8h 54m
Full, 98% of the Moon is Illuminated
Jan 10
Full
Jan 16
Last Quarter
Jan 23
New
Jan 30
First Quarter
Feb 7
Full

Hourly Weather History & Observations

Time (CST) Temp. Windchill Dew Point Humidity Pressure Visibility Wind Dir Wind Speed Gust Speed Precip Events Conditions
12:15 AM 23.0 °F - 23.0 °F 100% 29.89 in 10.0 mi Calm Calm - N/A   Scattered Clouds
12:35 AM 23.0 °F - 23.0 °F 100% 29.90 in 10.0 mi Calm Calm - N/A   Clear
12:55 AM 23.0 °F - 23.0 °F 100% 29.90 in 10.0 mi Calm Calm - N/A   Clear
1:15 AM 23.0 °F - 23.0 °F 100% 29.91 in 10.0 mi Calm Calm - N/A   Clear
1:35 AM 21.2 °F - 21.2 °F 100% 29.91 in 4.0 mi Calm Calm - N/A   Clear
1:55 AM 19.4 °F - 19.4 °F 100% 29.92 in 5.0 mi Calm Calm - N/A   Clear
2:15 AM 19.4 °F - 19.4 °F 100% 29.91 in 10.0 mi Calm Calm - N/A   Clear
2:35 AM 21.2 °F - 21.2 °F 100% 29.91 in 10.0 mi Calm Calm - N/A   Clear
2:55 AM 19.4 °F - 19.4 °F 100% 29.91 in 5.0 mi Calm Calm - N/A   Clear
3:15 AM 19.4 °F - 19.4 °F 100% 29.91 in 10.0 mi Calm Calm - N/A   Clear
3:35 AM 19.4 °F - 19.4 °F 100% 29.90 in 5.0 mi Calm Calm - N/A   Clear
3:55 AM 17.6 °F - 17.6 °F 100% 29.89 in 10.0 mi Calm Calm - N/A   Clear
4:15 AM 17.6 °F - 17.6 °F 100% 29.89 in 0.8 mi Calm Calm - N/A   Mist
4:35 AM 17.6 °F - 17.6 °F 100% 29.89 in 10.0 mi Calm Calm - N/A   Clear
4:55 AM 17.6 °F - 17.6 °F 100% 29.89 in 10.0 mi Calm Calm - N/A   Clear
5:15 AM 17.6 °F - 17.6 °F 100% 29.88 in 10.0 mi Calm Calm - N/A   Clear
5:35 AM 14.0 °F - 14.0 °F 100% 29.87 in 10.0 mi Calm Calm - N/A   Clear
5:55 AM 17.6 °F - 17.6 °F 100% 29.88 in 10.0 mi Calm Calm - N/A   Clear
6:15 AM 17.6 °F - 17.6 °F 100% 29.88 in 10.0 mi Calm Calm - N/A   Clear
6:35 AM 14.0 °F - 14.0 °F 100% 29.87 in 7.0 mi Calm Calm - N/A   Clear
6:55 AM 14.0 °F - 14.0 °F 100% 29.86 in 10.0 mi Calm Calm - N/A   Clear
7:15 AM 14.0 °F - 14.0 °F 100% 29.86 in 10.0 mi Calm Calm - N/A   Clear
7:35 AM 15.8 °F - 15.8 °F 100% 29.86 in 10.0 mi Calm Calm - N/A   Clear
7:55 AM 19.4 °F - 19.4 °F 100% 29.86 in 10.0 mi Calm Calm - N/A   Clear
8:15 AM 19.4 °F - 19.4 °F 100% 29.85 in 1.2 mi Calm Calm - N/A   Mist
8:35 AM 19.4 °F - 19.4 °F 100% 29.85 in 10.0 mi Calm Calm - N/A   Clear
8:55 AM 23.0 °F - 23.0 °F 100% 29.85 in 10.0 mi Calm Calm - N/A   Clear
9:15 AM 26.6 °F 20.0 °F 26.6 °F 100% 29.84 in 10.0 mi SSE 5.8 mph - N/A   Clear
9:55 AM 30.2 °F 26.7 °F 30.2 °F 100% 29.83 in 10.0 mi SSW 3.5 mph - N/A   Clear
10:15 AM 32.0 °F 24.8 °F 32.0 °F 100% 29.84 in 10.0 mi SW 8.1 mph - N/A   Clear
10:35 AM 33.8 °F 27.0 °F 28.4 °F 81% 29.83 in 10.0 mi SSW 8.1 mph - N/A   Clear
10:55 AM 35.6 °F 29.2 °F 28.4 °F 75% 29.81 in 10.0 mi SSW 8.1 mph - N/A   Clear
11:15 AM 35.6 °F 29.2 °F 28.4 °F 75% 29.80 in 10.0 mi SSW 8.1 mph 17.3 mph N/A   Clear
11:35 AM 37.4 °F 29.3 °F 28.4 °F 70% 29.79 in 10.0 mi SW 12.7 mph 17.3 mph N/A   Clear
11:55 AM 39.2 °F 32.0 °F 28.4 °F 65% 29.77 in 10.0 mi SW 11.5 mph 18.4 mph N/A   Clear
12:15 PM 41.0 °F 35.2 °F 28.4 °F 61% 29.76 in 10.0 mi SW 9.2 mph 21.9 mph N/A   Clear
12:35 PM 41.0 °F 35.2 °F 28.4 °F 61% 29.75 in 10.0 mi SW 9.2 mph 20.7 mph N/A   Clear
12:55 PM 41.0 °F 33.5 °F 28.4 °F 61% 29.73 in 10.0 mi WSW 13.8 mph 20.7 mph N/A   Clear
1:35 PM 41.0 °F 33.9 °F 28.4 °F 61% 29.71 in 10.0 mi SW 12.7 mph 18.4 mph N/A   Clear
1:55 PM 41.0 °F 34.7 °F 28.4 °F 61% 29.70 in 10.0 mi SW 10.4 mph - N/A   Clear
2:35 PM 42.8 °F 37.5 °F 28.4 °F 57% 29.69 in 10.0 mi SW 9.2 mph 19.6 mph N/A   Clear
2:55 PM 42.8 °F 37.0 °F 28.4 °F 57% 29.69 in 10.0 mi SW 10.4 mph 16.1 mph N/A   Clear
3:15 PM 42.8 °F 39.3 °F 28.4 °F 57% 29.68 in 10.0 mi SW 5.8 mph - N/A   Clear
3:35 PM 42.8 °F 38.6 °F 28.4 °F 57% 29.68 in 10.0 mi SSW 6.9 mph - N/A   Clear
3:55 PM 42.8 °F 38.6 °F 30.2 °F 61% 29.68 in 10.0 mi SW 6.9 mph - N/A   Clear
4:15 PM 42.8 °F 38.6 °F 30.2 °F 61% 29.67 in 10.0 mi SW 6.9 mph - N/A   Clear
4:35 PM 41.0 °F 36.4 °F 30.2 °F 65% 29.67 in 10.0 mi SW 6.9 mph - N/A   Clear
4:55 PM 39.2 °F 34.2 °F 30.2 °F 70% 29.68 in 10.0 mi SW 6.9 mph - N/A   Clear
5:15 PM 37.4 °F 32.8 °F 30.2 °F 75% 29.68 in 10.0 mi SW 5.8 mph - N/A   Clear
5:35 PM 37.4 °F 32.8 °F 30.2 °F 75% 29.67 in 10.0 mi SW 5.8 mph - N/A   Clear
5:55 PM 37.4 °F 32.1 °F 30.2 °F 75% 29.67 in 10.0 mi SW 6.9 mph - N/A   Clear
6:15 PM 37.4 °F 32.1 °F 30.2 °F 75% 29.68 in 10.0 mi SW 6.9 mph - N/A   Clear
6:35 PM 35.6 °F 29.9 °F 30.2 °F 81% 29.68 in 10.0 mi SW 6.9 mph - N/A   Clear
6:55 PM 35.6 °F 31.7 °F 30.2 °F 81% 29.68 in 10.0 mi SW 4.6 mph - N/A   Clear
7:15 PM 35.6 °F 32.8 °F 30.2 °F 81% 29.68 in 10.0 mi SW 3.5 mph - N/A   Clear
7:35 PM 33.8 °F - 30.2 °F 87% 29.68 in 10.0 mi Calm Calm - N/A   Clear
7:55 PM 32.0 °F - 28.4 °F 87% 29.68 in 10.0 mi Calm Calm - N/A   Clear
8:15 PM 30.2 °F - 26.6 °F 86% 29.67 in 10.0 mi Calm Calm - N/A   Clear
8:35 PM 28.4 °F - 28.4 °F 100% 29.67 in 10.0 mi Calm Calm - N/A   Clear
8:55 PM 28.4 °F - 28.4 °F 100% 29.67 in 10.0 mi Calm Calm - N/A   Clear
9:15 PM 28.4 °F - 28.4 °F 100% 29.67 in 10.0 mi Calm Calm - N/A   Clear
9:35 PM 28.4 °F - 28.4 °F 100% 29.67 in 7.0 mi Calm Calm - N/A   Clear
9:55 PM 26.6 °F - 26.6 °F 100% 29.66 in 10.0 mi Calm Calm - N/A   Clear
10:15 PM 26.6 °F - 26.6 °F 100% 29.66 in 7.0 mi Calm Calm - N/A   Clear
10:35 PM 26.6 °F - 26.6 °F 100% 29.65 in 0.8 mi Calm Calm - N/A   Mist
10:55 PM 24.8 °F - 24.8 °F 100% 29.65 in 5.0 mi Calm Calm - N/A   Clear
11:15 PM 26.6 °F - 26.6 °F 100% 29.65 in 5.0 mi Calm Calm - N/A   Clear
11:35 PM 23.0 °F - 23.0 °F 100% 29.64 in 2.5 mi Calm Calm - N/A   Clear
11:55 PM 24.8 °F - 24.8 °F 100% 29.63 in 3.0 mi Calm Calm - N/A   Clear